Theta_e
277 278 278 279 279 279 279 279 278 279 279 278 277 273 278 278 273 274 274 277 276 277 278 282 283 283 285 284 285 285 286 287 288 287 287 287 288 288 290 290 290 290 291 291 292 292 293 294 295 296 297 298 298 299 299 299 300 301 303 306 308 309 309 309 309 310 309 309 309 308 308 306 305 303 303 303 303 304 303 303 303 302 301 299 298 297 296
277 278 277 278 279 278 278 280 279 279 278 278 279 279 278 280 279 280 279 275 278 280 280 282 283 282 283 283 283 285 288 288 288 286 286 287 287 288 289 289 290 290 291 291 291 292 291 292 293 295 296 297 297 298 298 299 299 299 301 303 305 307 308 309 309 309 309 308 308 308 306 304 303 302 303 304 304 304 303 303 302 300 299 298 298 297 296
277 276 278 278 278 278 278 277 278 277 278 278 278 278 277 280 278 279 277 275 277 280 281 283 283 282 282 284 287 286 287 286 287 286 286 287 287 287 288 288 289 290 290 291 291 291 292 292 293 294 294 295 295 296 297 298 299 300 300 301 303 304 307 308 308 307 307 308 307 306 304 304 303 303 304 305 304 303 301 301 300 299 298 297 296 296 296
271 277 278 278 278 278 276 277 277 277 277 274 275 276 278 276 276 276 275 273 275 278 278 280 282 284 285 286 286 286 286 286 286 285 287 287 287 288 288 288 289 290 291 291 291 292 292 292 292 292 294 295 295 297 297 297 298 299 299 300 300 302 305 306 307 307 306 305 304 304 303 304 304 304 304 304 303 302 301 299 299 299 298 297 295 295 295
268 276 277 278 276 275 275 273 276 278 279 281 279 279 280 281 280 276 273 277 279 278 282 283 284 284 285 284 284 284 285 285 286 287 288 287 287 287 287 289 290 289 290 290 291 292 292 293 294 294 293 292 295 296 297 298 298 298 298 299 299 300 302 304 305 306 305 304 303 303 303 304 305 305 304 304 302 301 300 300 298 297 296 296 295 295 294
266 275 276 275 270 268 269 272 278 281 280 279 279 279 281 280 281 276 279 280 279 279 283 284 284 283 285 287 285 287 287 286 286 286 286 287 287 286 288 288 288 289 289 290 291 291 292 294 295 295 295 296 297 297 297 297 296 297 297 298 299 300 301 302 303 305 305 304 303 302 303 304 304 305 304 303 302 302 300 298 297 296 295 295 294 294 294
269 270 273 267 266 270 275 278 279 280 281 281 280 281 279 278 278 280 280 280 280 281 282 283 283 283 284 284 286 287 287 287 285 285 287 287 287 288 288 289 290 289 289 290 290 291 293 295 296 295 295 295 295 295 295 295 295 296 297 298 298 299 300 301 302 303 304 303 303 302 302 303 303 303 303 302 301 300 299 297 296 295 294 294 294 294 294
266 267 265 260 264 275 278 279 280 281 280 279 280 278 277 279 279 280 280 281 281 282 283 283 282 282 284 285 286 286 287 288 287 285 286 286 287 288 289 289 289 290 291 291 291 292 295 295 295 295 295 296 296 296 295 296 296 297 297 297 298 298 299 301 301 303 303 303 302 301 301 302 302 302 302 301 299 298 297 296 296 295 293 294 293 292 292
267 262 266 269 273 276 276 274 279 279 277 278 277 271 274 280 280 281 281 283 283 283 282 281 282 282 281 281 283 283 286 287 287 287 287 287 288 288 289 290 291 291 291 291 292 293 293 294 295 295 296 296 296 296 296 297 297 297 297 297 298 298 300 300 301 302 303 303 301 301 301 301 301 301 300 298 296 297 295 294 293 293 292 293 293 292 291
269 268 263 263 265 264 266 276 280 282 282 282 280 277 274 281 281 281 281 283 282 280 280 280 281 281 280 279 279 283 283 285 288 288 287 287 288 289 289 290 290 290 291 291 292 293 293 293 294 295 296 296 296 295 296 296 296 297 297 298 298 299 300 301 302 302 302 302 301 300 300 300 300 300 298 296 296 296 295 293 293 293 293 292 291 291 291
267 268 265 261 261 264 267 276 281 283 281 282 280 275 275 281 281 280 281 281 280 280 281 281 281 280 278 277 279 284 284 284 284 285 286 287 289 290 290 290 291 291 291 292 293 294 293 293 294 295 295 295 295 295 296 296 297 297 298 298 299 299 300 301 302 302 302 302 301 301 300 299 298 296 295 295 295 295 295 294 293 292 293 292 290 290 290
267 264 265 265 265 267 281 281 281 282 282 281 278 270 267 277 280 282 282 282 281 281 281 280 281 280 275 278 282 283 284 284 284 285 288 289 289 290 290 290 291 291 292 291 291 291 292 293 294 295 295 295 295 296 296 296 296 297 298 299 299 300 300 301 301 302 301 301 301 300 299 296 296 295 294 293 293 293 293 293 292 291 292 291 291 290 291
270 271 265 264 268 275 280 281 283 284 284 281 272 268 274 282 284 284 283 282 282 282 283 283 281 283 285 286 286 285 286 287 288 288 288 289 290 290 290 291 293 291 291 291 291 292 293 294 295 295 295 295 295 295 296 296 296 298 299 300 300 300 300 300 300 300 300 300 298 297 297 296 296 295 295 294 293 293 291 290 290 290 290 289 289 288 287
268 265 267 269 267 275 283 282 284 285 280 271 267 274 281 282 284 286 286 285 286 285 286 285 285 287 288 287 287 287 287 287 288 288 289 289 289 290 291 292 292 291 290 290 291 292 293 294 295 295 295 295 295 296 296 296 298 299 300 299 299 299 299 299 299 299 298 298 298 296 296 296 295 293 292 293 292 291 290 290 289 289 288 289 288 287 285
267 265 266 265 265 278 284 285 282 284 275 274 281 282 283 285 285 285 285 285 286 285 284 285 286 285 285 285 286 287 287 287 288 288 289 289 289 290 290 290 290 291 290 291 291 292 294 294 295 296 296 295 296 297 297 298 299 300 299 299 299 298 298 298 299 298 298 298 297 297 296 296 293 291 292 292 290 289 289 288 288 287 287 287 286 286 285
267 264 264 266 272 278 284 283 275 279 283 285 285 285 284 286 285 285 286 285 285 284 284 284 284 284 284 285 286 287 287 287 287 287 288 288 289 289 290 290 290 291 291 291 292 293 294 295 295 296 297 296 297 297 298 300 299 297 297 297 297 298 298 299 299 298 298 297 297 296 295 294 292 291 290 289 289 288 288 288 287 286 284 284 285 286 286
269 266 265 273 277 279 281 283 281 283 285 285 286 286 286 286 285 287 286 286 287 287 286 286 284 284 285 286 286 286 287 288 287 288 288 288 289 289 290 290 291 291 291 291 292 293 294 295 296 297 297 297 297 296 297 295 295 295 296 296 297 298 299 299 298 297 297 296 295 295 294 293 291 290 288 289 288 287 288 287 286 286 284 285 286 285 285
277 279 280 280 281 281 280 282 285 283 283 284 284 284 284 283 285 286 286 286 286 286 285 284 284 284 285 286 286 287 287 287 288 288 288 289 289 289 289 289 290 291 291 291 292 292 294 295 296 297 298 297 295 295 295 295 295 295 296 297 298 298 298 297 296 296 295 294 294 293 293 293 291 290 290 290 289 287 287 286 286 286 285 285 284 284 284
273 268 273 278 278 278 280 281 283 283 283 283 283 283 283 284 284 284 284 284 284 285 284 284 284 285 285 285 286 287 287 287 287 287 287 288 289 289 289 291 291 291 291 291 292 293 293 295 297 298 297 295 295 296 296 296 296 297 298 298 297 297 296 295 295 294 293 293 292 292 291 291 291 291 290 289 288 287 286 286 285 285 285 285 285 284 284
272 272 277 279 281 282 282 281 281 282 283 283 282 283 284 284 284 284 285 284 284 283 283 284 284 284 285 285 285 286 287 287 287 287 288 288 289 290 290 290 291 291 291 291 292 293 294 296 297 297 297 297 297 297 297 297 298 298 297 297 296 295 294 294 293 293 292 289 291 291 291 290 289 288 287 288 288 287 286 286 286 285 282 284 285 285 284
276 277 279 280 280 280 281 281 280 281 281 282 283 283 283 283 283 283 284 284 284 284 284 284 284 284 285 285 286 286 287 287 287 287 288 289 289 289 290 290 291 291 291 292 292 293 294 297 298 297 297 297 297 297 297 297 297 296 295 294 294 294 294 294 292 292 292 292 291 290 289 288 288 288 288 287 287 286 286 287 286 285 284 284 285 284 285
270 272 277 277 273 274 279 282 283 282 282 282 282 282 281 282 282 283 283 284 284 284 284 284 284 284 285 286 286 285 286 287 287 288 288 288 289 289 290 291 291 291 292 292 293 293 295 297 298 296 296 296 297 297 297 296 296 295 294 294 294 293 293 292 291 291 290 290 289 289 288 288 287 286 285 287 288 288 286 287 287 287 287 285 285 284 284
271 277 279 279 279 279 280 282 283 283 283 282 281 282 282 283 283 283 282 282 283 284 284 285 284 284 285 286 286 286 286 287 288 288 288 288 289 289 290 290 290 291 291 292 293 294 296 298 297 296 296 297 297 297 296 296 296 295 294 293 293 293 292 292 291 290 289 289 288 288 288 288 288 287 287 287 287 287 288 288 287 287 287 287 287 286 287
280 282 282 282 280 280 282 283 283 283 283 282 282 283 283 283 284 284 283 283 283 284 285 286 286 286 286 286 286 285 286 287 287 287 288 288 289 289 290 290 291 291 292 292 294 295 297 297 296 295 295 296 296 296 297 296 295 294 294 293 292 292 292 290 289 289 289 288 288 287 286 287 287 287 287 287 286 286 287 287 287 287 287 287 287 287 287
279 283 283 283 282 283 284 284 284 283 285 285 284 283 283 283 284 284 283 284 284 285 285 286 286 286 286 286 286 285 286 286 287 287 288 289 289 289 290 290 291 291 293 295 296 296 297 296 295 295 295 296 297 297 297 296 294 292 292 291 291 290 289 289 288 288 288 287 287 288 287 286 286 286 285 285 285 285 286 286 286 286 286 287 287 287 287
282 282 283 284 283 283 283 283 283 283 283 283 282 283 285 289 288 287 286 286 286 286 285 285 285 286 286 285 286 286 286 286 287 287 288 288 289 290 290 291 292 293 294 295 296 297 297 295 295 295 295 296 297 298 297 295 294 292 291 290 290 289 289 288 288 288 287 287 287 287 286 286 285 285 284 284 283 283 283 283 284 284 284 285 286 286 286
282 283 282 281 281 282 283 281 282 282 282 283 283 284 284 284 286 286 286 285 285 285 285 285 285 286 286 286 286 286 286 287 288 288 289 290 291 292 292 293 293 294 295 297 297 296 294 294 294 294 295 296 297 297 296 295 293 291 290 290 289 288 287 287 289 288 287 287 286 286 285 285 284 283 284 282 282 282 282 282 282 282 281 282 284 285 284
283 284 283 280 281 283 284 284 284 283 283 284 284 285 285 283 283 283 284 284 285 285 285 285 286 285 285 285 285 286 287 288 289 290 291 292 292 293 294 294 295 295 296 296 296 294 294 294 294 294 295 296 296 296 295 294 291 290 290 290 289 288 288 288 287 287 286 286 286 286 285 285 284 283 282 282 282 281 280 280 280 281 280 280 280 282 285
285 285 285 285 285 286 286 286 285 284 284 284 283 282 281 282 283 283 284 284 284 284 284 285 285 285 284 285 287 288 289 290 289 289 289 289 290 291 292 294 294 294 294 295 295 295 295 294 294 293 291 291 293 294 293 292 291 290 290 289 288 287 287 287 286 286 286 286 286 286 284 283 282 282 281 281 280 281 280 281 278 280 280 280 281 283 282
287 287 286 286 287 287 286 285 285 285 282 282 281 282 282 283 283 284 284 284 284 284 285 286 285 285 288 288 288 288 287 287 287 287 287 287 288 289 290 292 292 291 291 291 291 291 291 291 290 289 289 290 291 292 292 291 291 290 290 291 289 288 287 286 286 287 286 286 285 284 283 282 282 282 282 281 281 280 278 278 278 277 279 281 282 280 279
286 286 286 287 287 287 286 285 285 285 284 284 284 284 285 285 285 285 285 286 287 286 287 287 286 287 287 287 287 287 287 287 286 286 286 286 286 287 288 288 287 286 286 288 289 290 290 289 289 289 290 290 290 291 291 290 290 289 289 288 287 285 285 285 285 286 286 285 284 284 283 282 282 281 278 278 278 279 278 277 276 277 278 279 280 280 281
284 284 284 284 284 284 285 285 285 284 284 285 285 285 286 286 285 286 288 288 289 288 288 287 286 286 286 287 286 286 286 286 286 286 286 286 286 286 286 286 286 286 287 288 288 288 289 289 289 290 290 290 290 290 290 289 289 290 288 286 287 286 285 284 285 285 285 284 284 284 282 282 281 280 279 279 279 279 278 278 279 278 277 278 280 281 282
282 281 281 282 283 283 283 284 283 283 284 285 285 287 288 289 289 289 289 289 289 288 287 286 286 286 286 286 286 285 285 285 285 285 285 285 286 286 286 286 286 287 287 287 288 288 288 288 289 290 290 290 289 289 289 289 288 288 287 287 287 286 285 284 284 285 284 284 283 282 281 281 281 282 281 280 280 279 279 279 279 279 280 281 282 282 282
282 282 283 284 284 283 282 283 285 285 286 287 288 288 288 288 287 288 288 287 286 286 285 285 286 286 286 285 284 284 284 284 283 283 284 285 285 286 287 287 287 287 286 287 287 287 287 288 289 289 290 290 290 290 289 288 287 287 288 288 287 286 286 284 284 284 284 283 283 283 283 282 282 281 281 281 281 281 281 280 280 280 280 281 282 282 283
287 287 287 287 287 286 286 285 285 285 286 286 286 286 286 286 286 286 286 286 285 285 285 286 285 285 284 284 283 283 283 283 283 283 283 284 284 285 286 287 288 287 286 286 286 286 288 288 288 289 289 289 289 289 289 288 288 288 287 287 286 285 285 284 284 283 283 283 283 283 283 282 282 282 282 282 282 281 281 281 281 280 280 281 281 282 282
287 286 286 286 286 286 286 286 286 286 287 286 285 285 285 285 285 285 285 285 286 286 285 285 284 284 283 283 282 282 282 283 283 283 283 283 284 284 284 284 284 285 285 285 285 286 287 287 286 286 288 288 288 288 288 287 288 288 287 287 286 285 285 284 283 283 283 283 283 282 282 282 282 282 282 282 282 282 282 281 281 281 281 281 281 281 282
287 286 286 286 286 286 285 285 286 286 286 285 285 285 284 285 285 285 285 285 285 285 285 284 283 282 282 283 283 283 283 283 283 283 283 283 283 282 282 282 282 282 282 281 283 285 286 286 286 286 287 287 287 287 286 286 287 287 287 286 285 284 284 283 283 283 282 282 282 282 282 282 282 282 282 282 282 282 282 282 282 282 281 282 282 282 282
287 286 286 286 286 285 285 286 287 287 286 285 285 285 285 284 284 284 284 284 284 284 284 283 283 283 283 283 282 282 282 282 283 283 283 283 282 281 281 280 280 281 280 280 283 285 285 285 285 286 286 286 286 286 286 285 286 286 286 285 285 284 283 283 283 282 282 282 282 282 282 282 282 282 282 282 282 282 282 282 282 282 282 282 282 282 282
286 287 286 286 286 286 285 286 286 286 285 284 284 284 285 284 284 284 283 283 283 284 283 283 283 282 281 281 280 281 281 282 282 282 282 282 282 281 280 280 281 281 281 283 284 284 284 284 285 285 284 285 285 285 285 285 285 286 285 285 285 284 283 283 283 282 282 283 282 282 283 283 283 283 282 282 282 282 282 282 282 282 282 282 282 282 282
285 285 285 285 285 285 285 285 285 285 285 285 285 284 284 284 284 283 283 283 283 284 283 283 282 281 280 280 280 279 280 281 281 282 282 282 281 281 281 281 281 282 283 283 283 283 283 283 283 283 283 283 284 284 283 283 284 284 284 284 283 283 283 283 283 283 283 283 283 283 283 282 282 282 282 282 282 281 281 281 281 281 281 282 282 282 282
285 285 285 285 285 285 285 285 284 285 285 285 285 285 285 285 284 283 283 283 283 283 283 282 282 281 281 280 280 280 280 280 280 280 281 281 280 279 279 278 280 282 282 282 282 282 283 282 282 282 282 282 283 282 283 282 283 283 283 283 283 283 283 283 283 283 283 283 283 282 282 282 282 282 282 281 281 281 281 281 281 281 281 281 281 281 281
286 286 285 285 285 285 285 285 285 285 285 285 285 285 285 285 285 284 284 284 283 283 283 283 283 282 281 281 281 281 280 280 280 280 280 279 279 279 278 278 281 281 282 282 282 282 282 282 282 282 282 282 282 282 282 282 282 282 282 283 283 283 283 283 283 283 283 283 283 283 283 282 282 282 281 281 281 281 281 280 280 280 280 280 280 280 280
286 286 285 285 285 285 285 285 285 284 285 285 285 285 285 285 285 284 283 283 282 282 281 281 282 282 282 281 281 280 280 280 280 279 279 280 280 280 279 279 281 281 282 281 281 281 281 282 282 282 282 282 282 281 282 282 282 282 282 282 283 283 283 283 283 283 283 283 282 283 282 282 282 282 281 281 281 281 281 280 279 279 279 279 279 279 279
285 286 286 285 285 285 285 285 285 285 284 284 285 285 285 285 284 283 282 282 281 281 280 280 280 280 280 280 280 279 279 279 279 279 278 278 279 280 281 280 280 280 281 281 281 281 281 281 281 282 282 282 282 281 282 282 282 283 283 283 282 283 282 282 282 283 282 282 282 282 282 282 282 282 282 281 280 280 280 279 279 279 279 278 278 278 278
285 285 285 285 286 286 285 285 284 284 284 285 285 284 284 283 283 283 282 281 281 280 280 280 279 279 279 279 279 279 279 279 279 279 278 277 276 277 280 280 280 280 280 280 280 280 280 280 281 281 281 281 282 282 282 282 282 282 282 282 282 282 282 282 282 282 282 282 282 282 282 282 282 281 281 280 280 279 279 279 279 279 278 278 278 277 277
284 285 285 284 285 285 285 285 285 285 284 283 282 282 282 281 281 280 281 280 280 280 280 280 280 279 279 278 278 279 279 279 279 279 279 278 277 278 280 280 279 279 280 280 280 280 280 280 280 280 281 281 281 282 282 281 281 281 281 281 281 281 281 282 282 281 281 281 281 281 281 281 281 280 280 280 279 279 279 278 278 278 278 277 277 277 277
283 284 284 283 283 283 284 284 284 284 282 281 280 279 279 279 279 279 279 280 280 279 279 279 279 279 279 279 279 278 278 278 278 279 278 279 279 279 279 279 279 279 279 279 279 279 279 279 279 280 280 280 280 281 281 281 280 280 280 281 281 281 281 280 280 281 281 281 281 281 280 280 280 279 279 279 279 278 278 277 277 277 277 277 276 276 276
282 282 282 281 280 280 280 281 281 280 280 279 279 278 278 279 279 279 279 279 279 279 279 279 279 279 279 279 279 279 279 279 276 277 278 277 278 278 278 277 278 278 278 278 278 278 279 279 279 279 279 279 279 279 280 280 279 279 279 279 279 280 279 279 279 279 280 280 280 280 279 279 279 279 279 278 278 278 277 277 276 276 276 276 276 275 275
280 280 280 279 278 279 279 278 277 277 277 277 277 277 277 278 278 278 278 278 278 278 277 278 278 278 278 279 279 278 279 278 277 276 278 278 278 277 277 278 278 277 277 277 277 277 278 278 278 278 278 278 278 278 279 279 279 278 278 278 278 278 279 279 278 279 279 279 279 279 279 278 278 278 278 277 277 277 277 276 276 276 275 275 275 275 275
280 280 279 279 278 279 278 277 277 276 276 276 277 277 277 277 277 276 276 277 277 277 276 276 276 277 277 277 278 278 278 279 279 278 278 278 278 278 278 278 277 277 277 276 276 276 277 278 278 278 277 277 277 278 278 278 278 277 277 277 277 277 278 278 278 278 277 277 278 278 278 278 277 277 277 277 277 276 276 276 276 276 276 275 274 274 274
280 280 281 280 278 278 278 277 277 276 276 276 276 276 277 276 276 276 276 276 276 276 275 276 276 276 276 277 277 277 278 278 278 278 278 277 278 278 278 278 277 277 276 275 274 274 274 275 276 277 277 277 277 277 277 277 277 276 276 276 276 276 276 276 277 276 276 276 276 276 277 277 277 276 276 276 276 275 275 275 274 274 274 273 273 273 273
281 281 280 278 277 277 276 276 276 276 276 276 276 276 276 276 276 275 276 277 276 276 276 276 275 276 276 276 277 277 277 277 277 277 277 277 277 277 277 277 276 276 276 275 275 275 274 274 275 276 277 277 277 277 277 277 276 276 276 276 276 275 275 275 275 275 275 275 275 275 275 275 275 275 275 275 274 274 274 274 273 273 273 273 272 272 272
Wind_Speed
3 3 6 1 1 3 3 4 4 6 6 2 6 6 5 6 4 9 4 7 5 5 5 8 7 3 2 2 2 2 2 1 2 3 2 3 4 4 5 5 4 4 4 3 3 4 4 5 7 7 7 6 5 6 6 6 6 8 7 7 6 4 5 6 7 8 7 7 8 9 8 5 5 5 6 7 5 2 2 6 8 10 9 9 8 6 5
3 4 2 2 3 2 2 3 5 6 4 8 8 7 4 9 7 9 7 6 11 7 7 9 7 4 2 2 2 1 1 0 1 1 4 4 4 4 4 4 4 4 4 4 3 3 3 4 5 5 5 6 7 6 6 6 7 6 6 7 7 6 5 6 6 7 7 7 7 8 7 6 6 7 8 8 9 11 9 7 7 8 9 8 8 8 7
3 3 5 1 2 2 4 5 5 4 4 5 6 4 2 1 6 7 4 6 11 7 5 6 1 1 1 0 1 2 1 0 1 2 2 1 2 3 3 4 4 4 4 4 4 5 5 5 5 5 5 5 5 5 6 6 7 7 5 6 6 6 7 6 6 5 5 6 6 6 5 7 8 11 13 13 13 11 8 5 6 8 10 10 8 7 8
3 2 3 6 3 3 6 7 5 6 6 7 4 4 7 5 7 5 3 4 9 8 4 3 3 1 4 5 3 1 0 1 3 3 2 1 1 2 3 4 4 5 6 6 6 5 5 5 4 4 5 5 5 7 6 6 7 6 6 6 7 7 7 7 7 6 6 4 4 5 8 10 9 9 10 10 10 10 11 11 8 8 10 10 9 8 7
4 4 5 6 3 6 10 7 8 13 10 10 5 3 2 7 5 5 6 10 5 7 5 5 3 1 1 1 3 1 1 1 1 1 1 2 3 4 4 4 4 4 5 5 5 6 5 5 4 5 4 4 5 6 7 7 7 6 7 6 6 7 7 6 7 7 6 4 5 6 8 9 9 9 10 11 11 12 13 11 9 10 9 10 10 9 9
1 1 1 1 1 9 7 3 4 10 12 10 9 8 9 8 6 5 5 6 3 2 5 6 5 2 1 0 2 1 1 2 2 2 2 2 2 4 4 4 4 5 5 5 5 5 5 5 4 5 4 5 7 6 6 5 5 7 6 7 6 7 7 7 6 7 6 5 6 7 8 8 9 11 11 12 12 11 9 10 11 9 8 9 9 9 8
4 1 0 2 7 8 2 3 1 1 2 1 9 9 4 4 4 3 3 3 0 2 2 3 2 2 2 3 5 6 3 3 3 2 1 2 2 4 5 6 6 6 6 6 6 6 6 6 6 6 6 5 6 5 5 6 5 6 6 7 7 7 8 8 7 6 7 7 7 6 8 9 9 10 11 10 11 10 11 12 11 11 10 9 9 9 8
1 1 2 1 7 4 5 5 1 2 1 0 1 3 3 3 1 1 0 1 1 0 0 2 1 3 5 6 4 4 5 4 5 2 2 3 2 4 5 5 6 6 6 6 7 8 6 5 6 5 8 7 7 7 4 5 6 6 6 6 6 6 7 8 8 8 7 8 7 7 8 9 9 10 10 11 12 9 8 8 8 8 6 8 8 8 7
3 3 5 8 3 7 3 4 3 2 1 2 1 2 2 4 1 1 2 2 0 0 2 3 5 5 4 5 9 3 3 3 4 5 4 3 4 4 5 5 7 7 6 6 7 5 6 7 8 9 9 8 8 8 7 6 6 6 5 6 6 6 7 8 8 8 8 8 7 8 8 8 9 9 9 8 6 6 9 9 9 9 9 8 8 8 7
3 2 3 3 1 3 3 4 3 2 2 2 1 2 0 2 3 1 1 0 1 3 3 2 1 2 3 4 5 6 4 3 5 4 5 5 5 5 6 6 6 7 7 6 6 5 7 8 9 10 9 8 8 9 9 8 8 8 5 7 6 7 8 8 8 8 8 8 8 8 8 10 9 8 6 6 8 7 10 10 9 9 8 8 7 7 8
2 1 2 3 2 4 3 4 4 2 2 2 3 3 1 1 1 3 1 3 3 3 4 1 2 2 1 5 6 8 5 5 4 5 6 5 5 6 6 6 8 8 7 7 6 6 7 9 11 10 9 8 9 9 9 8 8 9 9 8 7 8 8 8 8 8 8 8 9 9 9 7 6 6 3 2 4 6 9 10 9 8 7 8 6 5 6
2 2 1 4 3 1 0 3 4 4 2 3 2 1 3 2 5 2 1 2 4 4 2 2 2 3 4 6 7 4 3 3 3 4 6 6 7 6 6 6 7 8 6 5 5 7 9 11 10 9 8 8 9 9 10 8 9 10 11 10 9 8 8 8 8 8 7 8 7 8 8 8 9 9 9 9 7 7 5 6 7 6 7 6 7 6 5
2 3 4 2 5 3 3 2 4 4 1 2 1 4 1 3 3 4 2 4 4 2 1 4 3 6 7 6 6 5 5 5 5 5 6 7 6 8 7 7 6 5 6 5 8 9 10 10 9 9 8 8 10 10 10 9 11 12 11 10 9 9 8 7 7 7 7 7 7 7 8 8 7 7 7 11 10 8 6 6 5 4 4 5 6 6 5
2 3 3 6 3 4 1 3 3 3 1 2 3 3 3 3 4 3 3 4 4 3 4 4 5 7 8 7 6 8 8 7 8 7 8 6 6 6 6 8 6 6 6 6 8 9 9 10 10 9 9 10 10 11 11 12 13 12 12 10 9 8 8 7 6 6 6 6 8 9 9 11 12 10 7 8 8 8 7 7 7 4 1 3 5 5 4
1 1 1 2 2 0 1 1 2 3 2 3 3 4 2 3 3 3 3 3 6 3 4 5 7 7 8 8 8 7 7 7 8 8 8 9 9 9 8 8 6 5 7 8 9 9 9 8 8 9 9 11 12 11 13 14 12 12 11 9 9 8 7 6 7 8 8 11 10 9 10 12 12 10 9 10 8 7 7 6 6 6 4 2 4 4 3
2 1 2 2 2 1 1 0 2 1 2 4 5 3 7 3 3 3 4 3 4 4 4 6 7 6 6 9 7 7 6 6 7 6 7 8 9 9 8 7 8 6 8 8 9 9 9 8 8 9 9 11 11 12 14 13 9 8 9 10 9 9 7 8 8 8 10 10 10 10 11 10 11 13 10 9 7 7 7 7 6 6 3 3 3 3 2
2 3 3 6 4 3 2 1 2 2 5 6 5 5 6 6 4 2 3 6 6 5 5 6 5 6 7 8 8 7 10 10 9 9 10 9 10 11 10 11 9 6 8 10 9 10 9 9 10 9 9 11 12 14 12 6 8 9 10 9 8 8 9 9 9 9 10 11 12 11 10 12 11 10 8 9 8 5 7 7 7 6 4 3 4 3 2
3 5 7 5 8 7 6 3 3 4 7 9 4 4 4 4 6 4 6 5 7 8 5 5 6 6 7 9 11 10 10 9 9 9 10 10 9 9 8 9 9 8 7 7 9 11 12 9 9 8 9 8 11 10 7 7 8 9 8 7 8 8 9 10 11 12 12 10 10 10 10 9 10 9 10 8 8 5 5 5 5 6 6 5 3 3 3
4 5 3 0 3 4 5 6 7 6 6 6 4 3 4 6 6 6 6 7 7 7 6 7 9 10 9 9 10 9 9 10 10 9 10 11 11 11 11 12 8 7 6 8 10 10 12 10 8 8 6 4 5 5 6 6 7 7 7 7 8 9 11 11 11 12 12 10 8 8 8 7 6 7 7 7 7 6 5 6 5 5 5 4 3 2 3
5 6 5 9 10 9 6 6 8 10 10 7 5 4 5 5 5 5 8 6 7 5 6 7 8 9 8 8 10 10 9 9 9 9 10 11 12 12 10 10 8 7 8 9 11 10 10 9 7 4 2 3 3 4 4 5 0 5 6 8 10 10 11 9 9 10 10 11 11 8 7 8 7 6 6 6 7 6 6 5 5 4 3 3 2 3 3
4 5 10 12 9 8 10 7 4 6 7 7 8 8 7 7 8 10 10 6 8 6 10 8 7 9 11 10 10 10 10 10 9 10 11 11 11 11 11 9 7 9 9 9 10 10 9 8 4 0 1 3 6 7 6 5 4 11 11 12 13 12 9 8 9 8 9 9 8 8 7 6 5 5 7 6 6 4 3 5 6 6 4 3 4 4 5
6 6 8 3 6 8 9 11 9 6 6 6 8 7 7 7 9 9 10 11 9 7 8 8 8 9 11 11 9 10 11 10 11 11 11 11 10 11 10 8 9 10 10 10 10 10 8 5 2 3 4 6 6 6 6 7 8 12 12 12 11 9 8 8 8 8 7 7 7 7 7 7 7 5 6 4 6 7 4 5 5 7 8 5 5 6 5
6 7 10 5 6 9 10 12 12 6 5 5 8 9 10 11 10 8 7 9 10 9 9 7 8 10 11 13 11 10 10 12 12 11 11 11 10 10 9 8 10 10 10 9 9 9 8 2 5 5 8 6 4 6 8 8 9 10 10 9 9 9 8 6 7 8 7 7 6 6 7 7 7 7 6 4 6 5 4 6 6 5 5 4 5 5 4
10 10 11 9 6 9 12 9 8 9 6 6 11 11 10 11 11 10 8 8 9 10 9 9 7 10 11 12 10 12 13 12 11 11 10 10 10 10 9 9 10 11 11 10 10 10 6 6 8 8 9 4 4 3 3 3 6 8 9 10 9 7 5 4 6 7 7 7 6 7 6 7 7 7 7 6 3 3 4 4 5 6 7 5 3 1 3
10 10 9 9 10 12 11 10 10 8 8 9 10 11 9 10 10 8 8 8 7 9 10 11 10 7 9 11 9 10 11 10 9 10 10 9 9 9 9 9 11 11 11 10 8 7 6 10 9 9 9 7 6 5 4 2 2 3 3 4 5 3 2 4 4 7 7 6 6 7 7 7 6 6 7 7 6 3 1 2 4 3 4 5 5 4 3
9 10 11 11 10 11 11 10 12 10 10 7 5 5 6 7 7 6 8 8 8 6 8 8 9 11 7 8 9 9 9 11 12 9 7 8 8 8 9 11 11 10 9 8 7 6 9 12 10 10 10 8 7 5 4 3 3 2 3 4 3 4 5 5 6 6 6 6 6 6 6 6 6 6 6 6 6 5 4 2 3 4 7 7 6 3 2
7 8 8 12 12 11 7 8 11 3 4 6 8 11 10 8 8 6 6 6 7 7 8 8 8 8 8 7 9 8 8 9 8 7 7 7 8 9 9 9 10 10 9 8 6 8 11 10 9 10 10 8 6 4 4 5 4 3 3 4 4 4 6 6 6 7 6 6 6 6 6 6 6 5 5 4 5 5 3 3 2 1 2 3 4 5 2
10 9 6 10 12 14 13 11 9 7 7 9 11 11 8 4 5 6 7 7 7 6 5 5 7 8 8 6 3 6 6 5 5 5 4 5 6 7 6 6 7 7 5 4 7 10 10 9 8 8 7 4 4 5 4 4 3 3 4 5 5 5 5 5 6 6 5 5 5 6 6 5 5 5 5 5 5 4 4 4 2 1 1 1 2 4 3
9 7 5 9 14 15 14 11 9 9 10 7 5 4 4 5 6 6 7 6 6 6 8 8 4 5 6 7 4 3 2 3 4 5 5 5 6 6 6 5 2 3 5 7 9 9 10 9 7 4 1 3 3 4 4 4 3 3 4 5 6 6 6 4 5 5 4 4 4 5 5 5 5 5 5 5 5 4 4 4 2 1 0 1 2 4 4
11 9 8 10 11 12 10 10 9 7 6 4 5 5 4 4 7 7 7 8 6 7 8 7 7 5 1 2 5 5 4 4 4 4 4 6 7 7 7 4 5 10 9 8 8 8 7 7 5 3 3 4 2 3 6 4 4 3 2 0 3 5 5 5 5 5 5 4 5 6 6 5 4 5 5 4 4 4 4 2 1 2 3 2 3 3 3
11 7 9 10 9 9 8 7 5 5 5 5 4 6 6 4 7 8 8 8 7 7 8 6 2 2 6 6 5 5 5 4 4 4 5 6 7 8 9 8 9 7 7 7 8 8 8 6 6 3 3 3 1 3 6 5 5 5 4 3 5 6 8 7 5 5 5 6 6 6 5 5 4 5 3 3 2 2 2 3 3 2 2 2 3 4 4
10 9 9 8 8 9 9 6 6 7 7 7 8 8 9 9 9 9 9 8 8 6 2 6 8 8 6 6 6 6 6 6 6 5 6 8 8 9 8 6 7 7 9 9 9 7 6 7 7 5 4 2 2 5 6 6 6 6 3 4 6 5 6 8 6 6 6 5 5 6 5 5 4 4 3 3 2 4 4 5 5 4 4 5 6 5 5
10 11 10 10 11 10 10 9 7 8 8 9 8 8 8 7 5 4 3 4 6 8 9 9 8 7 7 6 7 7 6 5 4 6 7 8 8 7 5 5 7 10 12 11 10 9 9 8 6 4 4 4 5 5 7 7 5 4 4 6 6 6 6 6 6 7 6 6 6 5 4 6 5 5 4 5 5 5 5 5 5 6 6 5 5 5 5
8 8 10 10 9 9 10 11 9 7 7 8 6 6 7 6 4 6 7 7 10 10 10 9 8 7 6 8 9 8 7 6 8 9 9 8 8 7 5 5 9 13 13 13 13 11 9 7 5 5 6 7 7 7 8 7 4 4 7 7 7 7 7 6 6 6 7 6 6 6 6 6 6 5 5 6 5 5 6 6 6 6 5 4 5 4 6
7 8 9 9 8 8 9 8 8 7 6 5 7 7 7 7 9 9 10 10 11 10 9 8 8 8 9 10 10 9 9 9 8 9 9 9 9 8 7 10 13 14 16 15 14 11 9 9 8 7 10 11 11 9 7 3 4 8 7 8 8 7 6 6 7 6 6 6 5 6 6 6 6 5 5 6 6 6 7 7 7 6 5 5 5 5 6
7 7 7 7 7 8 8 7 5 4 4 7 8 8 8 9 10 11 13 12 9 9 9 9 9 10 11 11 10 10 11 10 10 10 11 11 9 9 14 15 14 14 13 15 14 11 10 10 12 12 11 11 10 9 7 6 7 8 7 7 7 7 7 7 7 7 6 5 6 6 6 7 6 6 6 6 6 6 6 7 7 6 6 5 5 5 5
7 7 6 6 5 6 6 5 6 6 8 8 8 8 10 11 12 10 10 9 9 10 8 8 10 12 11 9 8 8 9 9 9 10 9 8 8 12 12 11 12 11 12 12 11 11 10 11 13 16 12 10 10 10 11 11 6 6 6 7 7 7 7 7 7 7 6 5 5 5 6 6 7 7 7 7 7 7 7 7 6 5 5 5 5 5 5
7 6 6 6 5 5 6 7 6 8 10 11 11 10 11 10 10 10 10 10 9 8 8 10 10 9 8 7 10 11 11 11 10 9 10 13 10 13 15 14 12 11 11 9 9 9 10 12 15 13 11 10 9 9 10 12 9 7 7 7 7 7 7 7 6 6 6 6 6 7 7 6 6 7 7 7 6 7 7 6 6 5 5 5 6 6 5
7 6 6 5 4 5 9 9 9 8 9 12 10 9 9 10 10 10 10 10 9 8 9 10 9 11 12 12 11 11 11 12 12 12 12 12 12 14 14 12 11 10 8 7 8 10 11 12 10 11 10 10 10 10 10 12 10 7 7 7 7 7 7 7 6 6 7 7 7 7 7 7 7 6 6 7 6 6 7 7 6 5 5 5 5 6 6
6 6 7 6 6 7 9 10 9 9 8 8 9 9 7 9 9 9 9 10 8 8 9 9 10 10 12 11 10 10 10 11 10 10 10 9 11 10 9 12 13 11 11 12 10 10 12 15 12 9 9 9 9 8 8 10 9 8 8 7 7 7 8 7 7 8 7 7 7 7 8 8 8 7 7 7 6 6 6 6 6 6 5 5 5 5 6
7 6 6 6 7 8 9 9 9 8 8 8 7 7 6 7 8 9 8 8 7 7 8 8 9 10 10 10 9 9 10 10 10 9 7 10 12 10 10 10 10 10 11 10 10 10 13 12 11 10 9 9 9 8 7 9 8 8 8 8 7 8 8 8 9 8 7 7 7 7 7 7 7 7 7 6 6 6 6 6 6 6 5 5 5 6 6
7 7 7 8 8 8 7 7 7 9 8 7 7 6 6 5 7 7 6 6 7 7 8 8 9 8 7 6 6 7 8 8 9 10 12 11 9 7 8 8 8 8 12 11 11 11 10 10 10 8 7 7 7 11 10 8 8 8 8 9 8 8 8 8 8 7 7 7 7 7 7 7 7 7 7 6 6 6 6 6 6 6 6 6 6 6 6
7 7 7 6 7 7 7 7 7 8 8 7 6 5 5 6 6 6 7 7 7 7 7 6 6 6 5 5 6 9 8 7 8 9 9 10 10 10 9 6 6 8 12 10 9 8 9 8 8 8 10 9 8 10 10 8 8 8 8 8 8 8 8 8 7 7 7 7 8 8 7 7 7 7 7 7 6 6 6 6 6 6 6 6 6 6 6
7 6 6 6 6 5 6 6 6 7 8 6 5 5 5 6 5 6 7 7 7 7 7 7 7 8 7 7 8 8 7 6 6 5 6 7 8 10 10 7 7 9 13 9 9 8 8 8 7 10 13 13 13 11 8 7 7 8 8 8 8 7 7 7 7 7 7 7 6 6 6 6 6 6 6 6 5 5 6 6 6 6 6 6 6 6 6
5 5 6 6 6 6 6 6 7 7 6 5 6 6 6 6 6 5 6 7 7 6 6 7 7 7 7 7 8 7 7 7 6 6 8 9 9 8 8 8 9 7 9 10 8 8 7 8 10 13 11 12 11 10 7 7 7 6 6 6 7 6 6 6 6 6 6 6 6 6 6 6 6 6 5 5 5 5 5 5 5 6 5 6 6 7 7
6 5 5 6 7 6 5 5 5 5 6 7 7 7 6 5 5 5 5 6 7 6 6 5 6 6 6 7 7 7 7 7 7 8 7 6 6 4 5 6 7 7 11 11 8 8 8 12 14 12 12 11 9 7 6 6 6 5 6 6 6 5 5 6 6 6 6 6 6 6 6 6 6 6 5 5 5 5 5 6 5 5 5 5 5 6 6
5 4 5 5 5 4 4 3 3 4 5 6 7 5 3 4 5 5 5 5 6 6 5 5 6 5 4 4 4 6 6 6 7 7 6 6 6 5 6 7 7 9 8 8 8 8 8 9 10 12 11 10 9 6 6 6 6 6 6 6 6 6 6 6 6 6 6 6 6 6 7 6 6 5 5 5 5 5 5 5 5 5 5 5 5 6 6
4 3 2 3 3 2 2 3 4 4 4 5 4 4 3 4 5 5 4 5 6 6 6 6 6 6 5 5 4 3 3 5 7 5 4 4 5 5 5 5 6 8 9 8 9 10 15 15 15 14 13 10 7 6 6 6 6 6 6 6 6 6 6 5 5 5 6 6 6 6 5 5 5 5 5 5 5 5 5 5 5 5 5 5 5 6 6
3 4 2 2 2 1 2 2 3 3 3 2 4 3 3 5 5 5 4 4 5 6 5 5 6 5 5 5 5 5 5 4 3 3 1 3 4 5 4 5 7 8 7 6 7 6 11 13 13 13 12 8 6 6 6 6 6 6 6 6 5 5 6 6 5 5 5 6 6 6 6 6 5 5 5 5 5 5 5 5 5 5 5 5 5 6 6
3 4 3 3 3 3 3 2 3 4 3 3 4 5 3 4 6 4 3 4 5 5 5 5 4 5 5 5 5 5 5 5 5 5 5 4 4 4 4 5 5 7 7 6 6 5 7 10 11 10 8 6 6 6 6 6 6 6 6 6 6 5 6 7 7 8 7 6 6 6 6 5 5 6 5 5 5 5 5 5 5 6 9 6 6 6 5
4 5 6 5 5 4 4 4 4 4 5 5 4 3 3 4 5 3 3 4 5 5 5 4 4 4 4 4 4 4 4 5 5 4 5 4 3 4 4 4 5 5 6 6 6 5 5 5 5 6 6 6 6 6 6 6 6 6 6 6 6 6 6 6 6 6 6 6 5 6 5 5 5 5 5 5 5 5 5 5 5 5 6 5 6 5 6
4 4 2 2 3 3 3 3 3 3 3 3 4 5 5 5 5 4 2 3 4 5 5 5 4 3 3 4 4 4 4 5 4 4 4 4 4 4 4 4 4 5 6 5 4 5 5 5 6 6 7 5 5 5 6 7 6 5 6 6 6 6 6 6 6 5 6 6 5 5 6 6 5 5 5 5 5 5 5 5 5 5 5 5 6 6 6
Wind_Direction
254 246 255 298 319 223 232 205 201 219 223 145 183 222 198 143 189 232 232 189 201 250 231 230 225 202 234 254 267 241 244 306 356 33 50 36 24 5 15 357 352 350 351 335 345 345 341 351 359 354 355 352 357 352 349 349 347 344 338 338 316 268 242 232 229 222 215 208 209 218 214 183 165 140 107 99 82 354 259 172 159 151 145 141 137 130 130
321 300 236 258 196 283 318 253 219 231 185 210 206 221 197 185 220 225 221 187 225 218 219 217 228 204 188 242 271 314 103 347 350 29 50 37 13 3 350 338 330 323 321 316 311 317 334 348 345 345 344 342 341 341 334 335 335 327 347 332 324 309 273 251 242 227 213 204 204 209 197 163 137 122 119 136 167 182 189 173 156 143 137 141 142 146 141
272 275 305 219 189 162 255 257 251 240 241 253 233 237 255 216 280 274 256 217 248 255 221 238 182 217 214 45 261 228 221 261 185 110 79 39 352 328 314 320 323 317 319 325 327 335 330 332 329 326 322 320 321 322 320 322 320 317 333 320 316 305 295 280 264 247 227 217 203 198 165 146 153 158 168 175 176 166 152 161 166 154 143 143 146 147 145
292 262 267 284 287 230 236 250 244 234 229 241 213 200 207 165 224 238 235 268 259 264 243 271 303 337 150 177 208 251 265 196 144 131 142 80 311 316 309 307 315 331 334 338 339 328 320 311 307 311 312 312 320 312 311 309 303 308 313 310 307 298 287 291 285 262 241 221 193 177 168 178 179 175 172 171 166 162 159 161 176 162 152 152 148 144 143
248 231 234 257 298 345 286 253 222 225 221 213 225 259 175 210 198 231 230 244 224 223 171 147 212 150 185 270 244 231 189 236 190 128 69 356 318 318 309 319 322 314 313 314 312 317 317 310 307 292 279 294 296 292 301 297 304 307 298 289 290 292 290 283 277 273 260 224 197 183 190 187 182 176 176 171 166 169 175 162 152 159 155 144 146 146 149
227 270 295 82 50 259 240 233 227 203 211 213 225 244 232 233 171 205 202 243 260 194 161 172 178 161 188 221 249 183 203 227 228 244 239 249 275 298 309 306 302 299 298 301 301 298 293 288 278 274 272 273 275 274 276 285 289 287 286 285 279 282 287 281 272 266 257 236 212 197 193 190 187 187 181 180 179 173 157 149 151 147 147 143 143 148 155
276 275 66 9 250 253 255 307 270 219 336 251 222 246 293 305 287 305 335 341 306 221 221 194 186 210 291 327 304 302 246 204 198 199 208 288 303 302 302 311 310 305 299 298 303 305 303 300 304 310 299 276 275 278 276 282 270 270 266 266 270 271 278 283 279 264 253 236 224 200 194 194 191 194 191 180 176 168 161 156 150 149 150 149 156 155 154
65 84 102 140 242 254 307 294 323 298 116 89 93 324 332 321 255 183 41 281 249 288 304 293 291 356 310 319 277 243 264 194 203 203 296 276 269 290 279 281 285 286 287 284 287 287 288 300 300 294 291 295 296 288 274 270 276 263 264 262 263 262 262 265 268 264 251 242 225 203 194 195 194 193 190 184 178 164 152 143 139 135 134 140 145 151 155
206 194 181 224 304 318 333 348 15 11 28 348 30 215 283 320 296 230 147 122 313 317 286 311 340 345 14 10 315 287 251 246 221 228 253 231 248 249 272 268 272 272 275 275 273 278 292 296 300 297 295 296 291 294 298 287 277 270 263 265 261 253 251 250 251 251 244 236 225 207 195 191 196 194 182 171 166 163 144 142 139 141 147 153 155 151 152
127 176 312 330 355 265 282 245 286 261 202 159 236 118 294 8 344 169 109 206 285 270 287 319 333 43 55 341 290 293 302 258 254 274 266 273 263 267 272 283 277 277 277 279 279 276 288 291 286 288 290 293 294 296 296 293 289 283 266 263 254 246 246 246 246 248 240 226 215 202 192 194 192 187 176 164 158 162 146 143 140 148 149 143 149 151 151
59 73 173 222 177 247 212 266 270 280 150 152 171 73 194 197 269 293 238 303 268 235 266 278 103 81 196 233 254 267 259 281 260 257 275 267 263 263 261 260 273 275 270 265 275 290 289 288 285 285 288 290 291 288 287 285 280 281 276 265 258 251 248 244 245 245 241 222 207 196 188 175 150 136 117 159 165 160 149 143 143 143 141 141 140 134 136
208 153 178 255 201 224 259 245 277 279 100 116 64 236 270 270 295 264 169 301 299 294 245 170 146 179 247 261 258 240 232 215 233 214 249 263 261 257 252 254 246 256 266 282 283 280 278 276 280 283 284 282 279 279 277 273 272 269 269 267 264 260 257 249 244 241 232 217 201 183 166 149 144 137 129 114 100 79 73 98 128 140 139 136 141 139 134
233 178 258 331 307 273 262 254 264 297 194 112 169 216 235 268 266 281 249 284 264 240 264 152 235 228 222 253 271 299 300 303 283 248 237 243 254 269 271 268 269 262 257 252 264 271 277 280 283 282 281 282 277 273 270 268 264 264 264 266 265 264 261 252 241 230 209 184 158 146 142 133 116 112 130 136 130 121 106 75 80 82 112 118 124 137 146
217 208 159 229 241 236 202 278 248 255 125 234 207 231 209 225 271 273 244 255 266 220 237 228 228 255 268 279 287 287 286 274 274 279 281 280 266 251 250 265 275 270 266 264 264 268 265 270 273 276 276 273 272 269 269 264 262 263 263 263 263 264 261 246 220 187 164 149 141 133 129 126 124 118 99 81 92 108 111 115 107 86 52 136 133 136 142
51 61 227 338 265 295 172 266 356 32 89 232 254 296 279 203 238 264 274 228 263 206 253 241 243 260 275 272 273 269 274 282 285 291 300 299 296 297 298 294 269 255 272 271 270 268 272 270 271 270 270 269 267 266 261 262 261 261 264 266 264 262 248 211 184 168 155 142 135 133 132 129 119 106 103 108 104 100 102 95 111 127 172 173 141 138 167
225 165 160 185 208 197 295 19 230 219 219 276 286 277 294 259 228 267 276 254 237 231 230 268 287 280 285 297 288 286 278 271 281 284 284 287 291 289 277 262 272 270 266 264 271 277 277 275 273 272 265 265 264 264 264 263 267 273 272 266 261 246 211 180 163 152 142 134 130 127 124 117 114 120 119 116 113 124 131 137 137 133 152 140 117 146 213
147 215 221 261 254 215 265 171 210 237 285 286 273 264 242 258 277 210 273 279 282 272 283 291 286 300 292 283 287 289 288 293 290 290 287 286 286 286 286 286 283 270 261 273 280 282 277 277 277 274 263 260 266 267 270 284 271 266 263 259 239 205 177 162 143 138 136 134 131 126 125 124 120 114 112 121 123 154 139 138 129 129 168 178 166 182 203
284 262 234 272 304 303 301 260 225 283 297 296 279 240 263 255 251 272 272 283 285 295 294 296 294 272 275 286 292 289 284 279 279 283 289 289 281 274 275 275 269 262 269 274 280 284 287 281 280 275 268 260 266 272 277 263 255 251 249 235 202 170 149 135 133 133 124 111 107 117 122 124 126 135 141 144 134 130 109 109 126 141 165 174 170 172 225
33 280 342 253 244 271 275 279 283 280 257 255 275 273 234 257 274 283 274 259 264 261 271 262 263 272 274 277 275 274 278 277 274 276 281 282 278 279 279 273 275 278 274 282 282 283 286 290 288 288 282 275 265 278 278 268 255 237 221 186 151 135 128 127 127 124 119 120 114 103 98 95 102 119 119 113 113 115 115 124 124 135 147 162 167 187 262
228 249 281 296 289 281 284 280 291 292 297 296 277 247 267 272 276 268 272 283 278 259 265 262 267 274 276 274 277 278 274 272 274 276 274 273 277 273 263 271 272 270 271 270 276 278 282 288 294 299 301 303 315 322 316 310 271 107 109 123 119 114 112 111 116 120 119 117 116 113 110 110 108 89 77 107 119 132 141 146 137 150 160 167 189 213 239
275 292 281 271 293 294 287 289 254 245 257 271 284 291 295 300 297 294 291 270 264 282 277 281 281 282 280 269 266 268 271 274 271 265 263 263 263 268 275 270 260 261 266 269 268 272 277 285 296 242 328 18 19 15 1 351 83 101 105 106 104 99 100 106 105 103 111 114 116 114 105 88 75 109 135 135 121 147 202 163 151 154 170 183 201 203 195
286 255 272 311 319 300 301 290 287 279 257 251 268 281 286 276 275 275 276 282 276 259 261 264 263 262 268 271 265 261 261 262 267 270 269 269 268 267 260 260 262 264 263 262 266 269 275 276 186 171 89 58 37 30 44 48 71 87 91 91 92 97 93 91 93 100 109 116 120 118 119 118 109 70 26 81 140 144 185 225 212 176 150 176 193 174 183
260 263 266 254 241 267 259 271 283 277 280 277 276 274 273 278 270 259 257 269 281 277 264 243 243 254 258 264 264 264 265 263 262 265 269 272 270 264 259 261 264 259 262 263 262 263 257 197 174 143 98 70 50 60 63 60 64 75 83 90 93 93 99 108 125 132 126 117 116 115 115 117 115 117 106 68 42 60 122 167 184 207 224 208 164 167 172
268 270 276 282 275 273 285 279 279 287 270 249 261 267 271 273 274 273 260 247 252 268 271 268 241 247 258 259 259 261 265 266 270 272 268 261 256 258 261 255 260 266 266 262 254 249 237 173 163 139 119 111 101 127 116 79 75 99 112 120 132 145 144 128 125 120 121 123 123 115 113 117 123 126 128 123 98 62 91 139 171 192 213 225 241 0 48
268 281 285 285 282 283 280 283 281 270 270 266 268 268 265 267 268 256 251 255 241 247 266 277 277 259 255 267 263 260 263 270 269 266 265 263 260 258 260 262 260 257 256 250 246 234 201 163 160 142 134 157 169 193 215 208 128 133 167 168 168 159 126 122 117 121 122 128 127 123 124 121 121 126 131 138 143 151 25 27 69 75 33 31 21 31 77
261 273 279 281 283 276 282 294 282 266 260 260 264 270 264 253 254 255 250 251 261 254 255 264 274 277 267 266 268 267 270 265 266 268 271 270 270 266 262 256 255 253 252 248 234 208 171 160 149 134 148 180 187 203 216 200 177 161 178 185 177 162 156 152 136 136 138 137 132 128 128 129 138 140 145 145 145 130 92 28 350 4 37 41 34 80 73
271 264 283 293 283 278 261 239 274 286 291 291 280 281 279 274 269 264 264 260 255 257 255 259 260 273 284 268 263 263 254 273 285 277 266 270 270 267 263 259 253 250 246 241 216 170 145 135 131 143 174 183 196 208 198 193 173 148 161 165 147 150 160 156 152 150 150 141 131 126 122 126 132 134 144 147 139 132 133 115 96 46 317 331 352 38 39
277 274 250 263 283 287 284 275 271 286 289 284 285 284 286 291 293 291 290 291 292 282 274 261 269 270 272 276 247 274 268 264 281 295 301 298 306 300 287 277 260 243 220 169 130 124 123 120 133 161 180 198 209 208 192 176 143 142 158 160 154 158 166 158 139 134 138 131 130 132 139 144 136 129 128 125 107 109 109 119 135 180 311 285 283 304 355
283 275 266 256 269 275 278 281 287 287 285 282 276 274 295 307 295 292 288 285 289 302 298 299 294 274 257 275 265 271 284 341 342 348 337 323 310 320 329 337 354 83 94 105 112 114 121 138 148 127 330 302 249 180 157 148 147 158 160 161 158 157 155 138 119 121 116 121 121 108 100 99 109 101 97 96 101 115 141 145 146 180 206 292 351 11 23
297 300 297 291 286 280 274 275 278 285 288 293 313 310 307 302 303 297 295 296 293 290 286 289 307 304 283 28 25 16 18 12 18 9 1 9 358 355 1 341 72 61 57 63 75 83 91 90 83 72 324 303 301 151 136 146 141 125 86 143 160 135 126 116 121 121 127 114 93 91 88 93 100 104 96 104 130 159 147 131 124 102 71 22 55 76 26
303 302 308 311 336 328 304 294 298 292 300 318 322 309 311 298 289 288 287 285 282 270 286 295 294 32 42 41 34 30 32 26 18 17 25 27 29 22 23 25 63 76 74 65 73 81 86 82 71 33 317 303 352 108 119 118 110 100 100 114 93 89 98 103 96 106 109 109 105 99 94 92 89 105 114 112 94 97 88 91 78 77 74 47 49 29 354
312 321 329 334 333 329 332 329 322 323 327 320 318 317 308 297 285 283 287 288 286 294 357 67 62 56 50 41 33 27 23 7 359 356 20 39 40 38 23 19 53 59 72 68 59 58 67 68 51 2 333 336 71 89 93 92 94 98 144 123 97 76 68 76 82 80 97 100 95 88 92 93 67 70 77 80 97 85 83 79 72 60 47 45 32 15 351
331 329 336 332 328 327 328 330 325 325 328 322 306 295 290 278 268 270 313 5 46 62 69 63 59 53 43 32 29 26 15 358 0 25 34 34 37 38 23 46 64 67 62 57 54 47 44 44 29 4 29 41 64 82 89 86 88 135 129 90 86 76 68 65 89 95 80 78 73 81 79 75 78 79 75 76 75 81 80 76 68 61 55 48 37 5 352
327 312 302 303 310 315 317 319 314 315 312 308 323 352 11 18 41 60 58 60 66 65 65 62 55 47 39 42 39 32 17 17 28 28 24 25 27 29 33 62 68 65 60 50 44 39 29 22 16 37 52 58 60 66 75 86 128 123 88 88 79 75 70 64 68 82 86 74 81 77 79 78 68 67 71 74 73 75 71 65 60 58 58 43 22 353 353
279 293 309 316 317 318 314 307 312 312 311 5 26 29 29 36 47 53 58 59 60 59 59 56 54 53 52 47 41 33 27 29 27 33 30 28 25 23 35 48 51 54 52 44 37 30 20 18 16 35 52 55 52 51 52 67 86 83 77 80 81 81 80 73 68 70 82 86 83 82 78 74 73 68 68 71 69 69 67 62 54 47 43 30 9 4 7
318 320 323 323 323 321 322 315 309 328 35 50 48 47 51 50 53 58 61 59 58 56 56 57 60 58 51 45 40 35 36 33 32 34 36 33 29 38 48 45 42 42 45 43 27 18 14 22 26 45 57 52 52 44 39 46 65 72 83 86 89 86 79 77 77 75 65 75 79 81 83 86 81 70 64 67 63 58 61 58 52 46 42 31 18 10 3
340 339 335 330 325 331 341 358 28 48 56 57 54 58 60 56 59 56 58 53 50 52 51 55 55 53 50 44 43 44 43 38 39 40 37 33 30 41 39 39 33 28 32 36 3 359 11 20 26 43 49 52 50 46 37 40 62 67 82 79 83 83 85 82 72 77 74 67 74 79 81 76 69 62 56 56 56 53 52 52 45 42 36 27 18 13 8
357 355 350 349 345 348 33 38 45 69 77 70 62 58 57 60 58 60 57 53 48 44 49 53 53 52 48 42 40 38 37 35 33 35 38 35 24 48 44 41 30 21 30 18 349 4 14 17 30 41 39 41 39 40 38 41 51 59 68 72 78 79 79 82 80 75 73 67 63 67 65 63 63 60 56 55 52 50 47 45 39 32 26 18 15 15 12
7 359 4 1 4 47 64 63 60 56 64 79 75 64 63 67 68 65 62 56 48 43 50 53 53 52 47 41 33 24 22 28 27 30 32 34 39 53 53 43 37 30 24 358 13 23 20 24 36 38 36 31 31 33 33 32 37 54 62 67 67 73 72 74 72 72 65 62 59 59 59 59 58 58 54 51 49 46 46 39 35 30 26 19 14 10 8
16 11 12 13 42 66 73 67 63 61 57 60 75 78 72 72 67 68 67 64 53 50 59 60 56 57 53 42 35 31 22 24 24 28 28 32 39 41 46 36 24 19 18 21 27 28 27 30 35 39 36 30 32 36 34 34 40 52 52 58 62 63 66 68 67 65 61 61 61 60 62 59 58 56 54 50 47 43 37 30 27 23 18 15 13 8 0
29 22 24 38 56 64 71 76 73 66 62 60 60 65 65 80 85 80 75 74 67 60 58 61 68 64 62 61 59 53 46 37 32 27 22 45 41 34 44 35 10 15 19 24 26 28 31 34 32 34 28 29 31 32 39 39 46 50 55 55 57 60 62 61 62 61 61 61 62 61 60 60 58 55 51 48 45 41 36 29 26 19 15 11 8 4 1
32 34 44 56 64 69 72 73 78 73 61 50 51 56 59 65 76 82 83 81 74 68 70 64 66 74 76 71 73 69 62 51 44 42 44 48 40 37 48 35 8 16 19 28 29 32 32 33 33 35 31 31 38 37 46 52 51 50 54 55 55 55 59 58 61 62 59 59 61 62 61 59 58 56 51 49 46 39 35 30 24 20 17 12 6 2 0
23 39 46 59 65 68 75 75 75 74 70 54 45 46 58 61 68 74 72 67 67 68 65 64 62 64 63 61 62 61 51 41 49 52 61 56 49 48 54 35 19 19 24 35 33 37 32 32 32 35 35 40 40 37 46 51 54 57 58 58 53 57 60 61 62 61 59 62 62 62 61 61 58 55 51 49 46 42 38 34 27 20 18 10 4 1 1
17 32 43 54 62 65 74 79 77 75 74 57 41 44 54 56 52 67 74 74 69 63 67 64 59 56 51 49 58 56 41 30 35 32 60 64 59 45 34 32 25 23 27 32 32 32 31 26 26 28 32 36 36 37 42 45 52 57 60 62 59 59 61 63 60 61 62 59 54 53 50 49 50 49 48 44 43 43 44 40 36 29 21 15 8 4 4
29 33 42 47 53 68 69 73 81 82 79 75 62 53 50 58 56 53 69 74 72 66 64 65 66 66 64 60 62 58 51 38 28 16 45 43 46 32 16 20 27 26 29 33 35 31 27 24 22 27 32 33 34 35 40 38 39 41 43 50 58 59 55 50 47 46 43 45 46 45 45 46 48 47 47 44 43 43 39 36 35 28 21 16 15 10 8
38 43 52 59 53 51 52 71 77 89 93 86 73 54 47 55 62 58 56 69 72 63 61 64 71 69 80 81 79 69 63 52 40 36 43 45 65 42 16 33 30 33 37 39 37 32 27 24 25 25 27 31 33 40 42 36 31 25 30 43 40 36 38 43 43 43 42 43 42 41 42 44 46 44 39 39 39 38 40 41 40 30 24 16 9 1 359
74 49 48 61 65 55 58 65 73 83 88 88 83 75 50 61 65 65 63 61 68 66 58 56 58 55 50 65 80 88 80 66 46 29 31 38 48 52 41 40 41 42 41 43 41 35 29 28 28 26 27 27 34 38 36 38 36 33 30 30 32 32 32 35 38 40 39 40 42 46 46 47 46 43 38 33 30 34 37 34 37 31 21 16 7 2 6
110 100 72 55 58 22 23 37 58 71 77 99 111 106 95 86 80 71 68 72 67 65 61 56 55 51 49 51 45 43 59 96 85 38 7 35 43 51 46 49 49 52 50 46 45 38 35 35 34 31 30 28 29 33 34 37 39 36 34 30 33 33 32 31 29 33 37 38 39 41 39 40 37 38 35 29 25 27 29 33 33 25 20 12 8 7 4
145 143 124 89 71 70 82 73 89 96 113 114 108 106 105 99 90 79 77 77 78 68 62 56 54 54 51 51 53 53 43 29 94 131 36 49 56 54 49 48 49 53 53 50 46 40 34 35 36 34 32 28 33 33 35 36 37 36 36 34 30 33 34 36 32 29 33 36 36 39 42 41 36 31 27 24 22 20 20 23 28 27 19 9 9 8 3
178 140 143 146 141 150 153 145 167 165 161 149 137 144 148 115 95 83 88 93 96 94 75 59 55 51 53 54 51 53 52 64 64 68 70 62 58 59 51 53 50 50 53 55 45 34 24 32 34 33 31 26 31 34 35 35 36 35 35 33 30 29 33 35 40 39 34 33 36 36 35 35 35 31 27 23 20 16 18 20 21 21 20 15 10 4 357
191 190 203 196 180 179 167 168 181 178 165 170 161 139 127 112 120 130 129 127 116 98 91 71 54 46 53 65 67 57 66 70 70 73 73 63 63 56 51 54 51 51 49 50 44 34 21 13 15 23 29 30 34 34 35 35 35 36 34 35 33 29 27 28 31 35 36 32 33 33 32 30 29 29 26 21 18 17 16 15 19 16 13 10 5 357 355
187 195 167 140 137 127 129 121 122 140 153 154 150 136 138 135 131 123 101 96 121 123 132 112 77 21 32 62 73 71 72 77 79 71 65 64 57 52 42 48 50 43 44 46 43 36 26 23 22 21 24 27 29 34 36 38 38 37 36 34 34 34 33 28 27 32 34 32 29 31 32 29 23 27 27 22 17 15 16 17 15 13 8 1 358 353 351